Theta_e
315 315 315 315 314 313 313 313 314 313 313 313 314 313 313 313 313 314 314 314 315 315 315 316 317 319 313 300 301 308 339 340 322 309 305 302 297 298 297 297 298 296 300 301 302 299 309
315 314 315 314 313 313 313 313 313 312 312 313 313 312 312 312 313 314 314 314 314 314 314 316 318 321 305 293 302 315 320 318 313 306 304 302 300 303 300 297 296 300 300 301 302 302 302
314 314 314 313 313 312 312 313 312 312 312 312 312 312 311 312 312 313 314 314 313 314 315 317 318 316 308 298 311 311 309 304 308 307 304 303 304 302 301 300 301 300 298 301 302 299 309
313 313 313 313 312 312 312 312 312 312 312 312 312 312 312 312 312 313 314 313 313 314 316 318 322 314 297 306 310 310 308 309 309 307 305 305 307 302 300 301 302 297 295 293 299 301 306
313 313 312 312 312 312 312 312 312 312 311 311 312 311 312 312 312 313 313 312 314 318 319 323 311 307 297 312 310 314 310 308 311 307 306 311 306 302 301 295 293 294 291 292 298 300 301
312 313 312 312 313 312 312 311 311 311 311 311 311 311 311 311 312 312 311 312 313 318 319 320 316 301 302 303 311 311 309 310 310 307 305 303 300 297 295 294 287 290 291 292 293 299 300
312 313 313 313 313 312 310 311 311 310 310 310 310 311 311 311 311 310 307 304 299 298 304 300 301 301 304 312 318 310 310 310 309 304 297 300 296 292 295 297 297 296 294 294 299 301 297
312 312 312 312 312 310 310 310 310 310 310 310 309 310 311 310 309 310 303 302 301 299 293 302 303 305 308 311 306 311 311 304 303 298 299 297 293 298 300 301 299 298 295 295 298 301 297
311 311 311 311 311 310 310 310 310 309 309 310 310 310 310 309 309 303 299 303 304 300 293 300 302 302 303 307 304 307 309 303 300 298 297 295 297 302 301 298 298 295 294 295 295 299 298
309 309 310 310 311 311 310 310 309 309 309 310 310 309 309 308 301 298 300 305 302 300 290 297 301 303 302 307 304 312 310 304 300 298 299 296 300 300 298 299 299 293 299 300 298 295 290
309 309 309 310 310 310 310 309 309 309 308 309 309 309 309 307 297 294 301 301 302 303 282 302 303 306 303 303 304 307 311 305 298 299 300 298 297 297 297 298 301 298 302 299 299 294 291
309 309 308 308 307 308 309 309 309 308 309 309 309 308 308 300 295 298 300 299 300 288 281 299 301 299 299 302 304 303 305 306 304 299 299 300 303 302 300 302 302 303 300 296 294 291 287
309 309 308 307 307 307 308 309 308 307 309 309 308 307 304 302 294 297 299 298 287 283 295 298 297 298 297 298 301 302 298 295 294 290 291 296 297 301 304 299 300 297 292 286 286 286 285
309 309 308 307 307 308 308 308 308 308 308 308 307 305 300 302 299 299 298 290 280 290 293 301 299 298 296 298 298 299 297 293 295 294 290 289 289 297 302 299 296 295 293 287 283 283 286
309 309 308 308 308 308 308 308 308 308 308 306 304 294 293 296 301 299 293 283 284 289 298 297 296 293 294 297 296 296 296 295 297 297 292 289 292 300 302 302 300 295 291 295 289 288 287
309 309 309 308 308 308 308 308 308 308 307 306 294 291 294 300 302 297 289 287 289 298 300 299 291 294 290 293 293 292 294 300 299 299 297 294 290 299 301 301 299 298 299 290 289 283 282
309 309 309 309 309 308 307 307 308 308 306 304 292 290 297 302 301 294 285 287 293 300 301 297 294 292 293 292 293 291 294 300 303 300 298 294 292 296 296 294 294 294 292 293 291 289 285
310 309 309 309 310 309 307 307 308 307 305 296 289 284 300 303 292 289 287 292 298 298 301 299 298 295 293 294 292 292 294 298 303 301 296 296 291 289 293 299 300 296 295 294 288 288 289
311 310 309 308 309 308 307 307 307 307 304 292 286 289 300 301 287 288 293 297 299 298 298 298 296 299 298 294 290 294 296 302 300 299 296 295 290 286 289 292 296 295 297 295 293 291 289
310 309 308 307 308 308 306 306 306 306 305 292 287 285 291 295 294 291 290 292 293 300 298 298 296 298 295 293 293 292 294 300 303 300 311 305 292 291 287 291 294 293 297 296 294 288 290
309 307 306 306 308 306 305 306 306 305 304 293 287 286 290 286 290 290 291 293 292 293 297 298 295 296 294 289 292 292 297 298 302 305 303 296 291 293 295 297 299 297 298 297 293 294 291
307 306 306 307 306 305 305 306 306 305 303 290 286 287 289 288 291 290 291 290 292 294 292 291 293 296 294 290 293 293 295 294 295 298 296 296 289 292 292 297 299 296 298 299 298 296 296
306 306 306 305 304 304 304 305 305 306 300 289 291 291 289 288 288 287 288 289 291 292 294 296 297 294 293 296 298 298 299 299 298 295 293 292 290 289 286 296 297 293 297 298 299 298 299
305 306 305 305 305 305 304 304 304 305 301 292 291 290 286 284 287 288 290 292 290 292 290 295 297 293 299 302 300 299 298 298 300 299 298 292 289 291 287 293 286 297 302 302 301 301 301
305 306 305 305 305 304 304 304 305 305 305 294 293 290 287 284 288 289 290 289 290 291 292 296 295 300 300 297 293 290 287 291 294 298 298 299 290 288 286 288 294 298 302 300 297 298 306
304 305 305 305 305 305 304 304 305 305 306 297 293 294 291 284 285 290 287 288 285 285 288 292 297 298 300 297 293 284 281 290 290 294 298 295 294 291 288 288 286 296 304 309 306 295 306
304 304 305 305 305 305 304 304 304 305 305 299 293 294 295 289 290 289 286 286 289 287 284 288 291 291 296 292 290 287 286 294 287 289 290 289 291 289 288 286 292 301 308 309 296 297 309
303 304 304 304 305 304 304 303 305 305 305 299 295 296 295 291 290 294 294 290 290 288 284 287 286 291 293 289 289 288 288 292 290 293 292 290 288 289 289 286 286 306 307 301 303 306 309
304 303 303 304 303 304 303 303 303 304 304 302 293 296 300 293 290 296 297 297 296 295 289 287 286 290 293 287 289 287 287 288 288 286 298 291 296 293 294 293 301 307 306 308 310 310 311
Wind_Speed
9 10 10 11 12 12 13 14 15 16 16 17 18 20 20 21 21 21 21 21 21 19 18 15 12 9 3 2 12 6 6 13 8 9 7 6 4 5 4 3 1 5 5 4 8 4 10
8 9 10 10 11 12 13 15 16 16 16 18 19 20 22 23 23 21 20 20 20 19 17 14 10 4 0 5 5 5 8 8 5 6 6 7 7 8 2 3 3 4 5 9 6 7 5
7 7 9 10 11 13 14 15 16 17 18 19 20 21 23 24 23 23 22 21 20 18 17 11 5 3 0 17 2 5 3 2 7 5 6 5 5 5 1 7 3 3 5 8 5 3 5
6 6 8 9 10 11 14 16 17 19 20 19 20 21 24 24 24 24 24 23 22 20 12 6 6 2 9 5 3 8 4 5 6 6 3 6 6 3 3 3 8 4 5 3 7 3 4
6 7 8 8 9 11 13 14 16 18 19 20 20 22 24 25 25 26 26 26 19 6 4 10 4 3 11 7 4 8 7 6 5 4 2 1 5 5 3 2 6 7 2 0 9 2 6
6 7 8 9 10 11 13 14 16 17 19 21 21 22 24 26 27 27 28 19 5 4 3 4 3 2 4 3 4 3 5 5 5 3 2 5 3 1 4 5 4 2 3 3 4 7 9
5 7 8 9 10 12 13 14 16 18 20 21 23 23 25 27 28 28 13 3 7 4 2 7 5 6 7 7 5 3 5 6 3 2 4 2 4 6 7 6 4 1 1 3 11 11 4
5 6 7 8 9 10 12 14 16 18 20 21 23 24 26 28 29 24 2 7 5 3 12 12 18 16 17 5 6 6 4 6 7 7 2 3 6 8 4 3 3 3 4 9 10 8 4
6 7 9 9 9 11 13 14 16 17 18 19 20 23 26 29 31 4 3 2 4 2 5 10 6 6 7 11 9 10 5 4 4 6 6 8 7 4 4 3 3 3 4 7 7 7 4
6 7 8 9 9 11 12 14 17 18 20 19 19 20 23 32 6 6 5 8 8 3 4 9 4 7 4 9 6 10 7 6 2 10 7 6 7 7 4 6 6 6 9 10 6 2 2
7 8 7 8 9 10 12 13 15 18 19 19 19 20 19 14 5 4 6 11 11 4 5 3 2 1 2 8 3 4 5 4 8 5 6 7 2 4 6 10 8 12 6 8 7 5 3
8 7 6 7 8 9 9 12 15 17 17 19 20 19 20 2 2 8 10 11 3 6 8 7 3 2 3 4 2 1 4 4 5 5 2 7 2 6 8 5 8 7 3 3 4 2 3
9 8 7 7 8 9 10 12 15 17 18 20 21 22 15 3 5 2 7 4 6 3 6 5 5 5 4 4 4 3 5 5 6 4 6 6 5 3 3 7 2 4 6 4 5 4 6
10 9 8 8 9 10 11 12 14 17 18 20 23 25 5 6 4 1 3 6 3 4 5 5 6 8 1 7 3 4 3 3 1 4 2 6 9 7 4 7 8 6 9 7 7 4 7
10 9 8 8 9 10 11 12 14 16 18 21 22 4 4 5 8 3 5 3 9 5 3 7 10 4 6 7 5 1 5 6 9 11 10 6 7 5 6 6 9 2 4 6 6 3 3
11 10 9 10 9 10 11 12 14 16 17 20 4 5 5 2 8 5 5 5 5 3 3 3 2 6 5 6 5 8 3 2 3 6 3 5 6 7 9 3 3 7 5 3 4 5 4
12 11 10 10 9 9 10 12 13 15 17 13 3 5 4 6 1 6 5 7 4 1 6 4 1 4 2 4 5 3 5 4 3 4 3 5 6 18 3 6 8 1 1 2 4 5 8
14 12 11 10 9 8 7 9 10 12 16 7 2 3 2 2 4 1 4 6 3 5 4 4 4 7 5 2 4 3 5 3 7 3 2 1 4 8 14 12 5 6 9 7 6 6 3
14 13 11 11 10 8 6 6 8 9 9 2 2 3 5 4 2 2 3 2 2 3 2 3 3 1 1 2 4 6 5 4 8 6 2 2 2 4 12 6 3 5 7 5 3 4 7
13 12 11 11 12 7 5 6 6 7 6 4 2 2 5 3 1 6 3 3 2 3 5 5 5 4 4 3 3 5 5 7 13 8 6 4 4 8 8 7 5 5 7 7 8 4 4
14 12 10 10 9 7 6 6 5 4 3 4 1 3 1 2 1 3 3 0 2 3 2 4 3 4 3 3 4 2 5 6 10 9 5 3 6 6 7 9 10 17 7 7 9 8 8
14 11 10 9 8 7 6 6 4 3 4 3 2 1 4 3 4 1 5 6 6 2 2 3 1 3 2 3 1 3 5 2 7 7 7 6 5 3 7 8 6 8 15 18 8 4 6
14 13 12 10 9 8 6 4 4 2 4 1 2 2 3 4 2 1 3 2 3 0 3 3 3 2 4 2 5 10 12 12 11 8 2 4 3 2 7 4 9 7 12 16 11 6 9
15 14 13 11 11 10 8 6 4 4 5 3 2 2 3 4 2 2 2 2 3 3 3 3 2 1 1 6 9 11 13 16 17 17 14 5 3 3 5 3 7 10 6 8 18 11 8
15 15 13 11 10 10 9 9 9 6 6 2 1 2 1 2 3 6 2 2 2 4 2 2 4 2 7 4 4 7 5 5 11 14 16 17 5 3 4 5 10 17 4 2 6 11 10
14 14 14 12 11 11 9 9 11 9 7 3 2 2 0 2 5 2 2 1 1 2 4 3 3 5 3 2 1 3 5 3 5 8 13 16 11 8 3 6 8 5 5 7 2 11 4
12 13 14 13 13 12 10 8 9 9 9 4 2 4 1 2 4 3 3 3 0 2 1 3 6 5 2 0 3 4 5 4 5 5 2 1 2 12 7 6 11 7 6 4 7 14 8
13 13 11 10 13 12 11 8 8 10 7 5 2 3 3 2 5 4 3 3 1 2 2 3 5 2 1 1 1 3 4 3 5 3 6 7 3 6 3 5 17 6 4 11 7 2 5
12 12 10 11 10 9 9 7 4 7 6 5 1 1 1 3 6 4 8 12 9 8 5 3 4 3 3 3 2 1 3 4 4 5 6 8 11 7 9 10 7 7 8 5 5 5 5
Wind_Direction
14 14 16 19 18 13 10 5 3 360 353 350 348 345 340 337 335 330 326 322 317 319 318 316 315 314 295 341 252 291 49 114 123 145 163 140 147 146 203 221 239 206 266 218 260 195 217
20 15 14 16 15 11 8 4 1 357 352 350 346 343 340 336 332 326 321 315 312 313 311 307 302 313 190 268 252 309 104 112 137 130 162 154 191 200 222 258 182 214 270 286 273 289 189
17 19 15 16 12 7 5 1 358 355 352 348 345 341 337 334 330 324 319 313 310 306 302 288 259 221 199 237 100 59 33 134 159 189 168 196 185 65 24 314 248 282 308 328 299 101 155
13 17 20 15 9 5 360 357 354 353 351 348 344 339 335 332 328 322 317 314 309 301 288 247 187 193 247 251 318 289 165 249 192 207 241 156 143 158 195 277 351 356 39 26 291 334 191
8 11 9 6 3 359 354 352 352 350 349 346 341 337 333 331 328 323 319 314 313 314 161 145 133 153 265 303 265 250 157 210 139 181 222 184 143 191 355 87 8 5 239 301 314 311 145
5 1 355 351 352 353 351 351 349 347 345 344 341 337 334 331 328 324 323 311 279 105 173 207 257 2 276 295 294 246 206 155 196 81 172 152 85 137 34 71 232 259 353 321 265 302 358
353 342 337 337 341 349 347 348 348 345 343 342 340 336 335 333 329 327 339 14 11 349 357 230 208 254 293 299 317 278 176 122 105 127 178 182 104 211 229 204 203 248 200 278 283 274 257
337 334 334 339 343 344 344 345 346 344 341 340 339 337 336 333 329 323 314 76 70 305 298 243 246 243 249 47 316 304 149 140 146 191 139 11 244 225 212 201 221 279 304 286 283 269 136
331 331 328 329 330 334 338 341 343 342 340 338 336 337 337 334 324 24 315 85 339 317 265 291 217 227 222 158 212 265 160 163 151 150 179 185 226 118 173 257 260 256 230 275 242 322 298
289 311 322 330 330 333 331 336 338 337 337 333 332 336 341 334 57 330 298 318 332 260 4 279 254 266 161 147 239 206 197 150 184 186 160 221 249 232 189 232 165 274 197 246 268 288 225
290 302 319 327 330 334 330 330 333 332 332 328 328 332 341 344 288 319 295 330 319 64 340 257 162 81 154 173 190 236 169 132 185 173 134 233 205 186 200 228 150 239 144 223 242 211 106
278 288 306 318 328 331 331 331 332 330 327 323 323 326 336 349 305 248 317 309 42 46 256 321 110 104 80 293 261 20 133 94 169 169 223 225 255 165 218 249 170 260 287 76 69 104 52
274 276 297 312 328 339 335 333 332 330 326 322 318 316 316 242 236 320 316 30 44 158 318 354 344 342 205 214 263 53 150 145 158 127 258 340 269 251 214 304 346 116 73 323 339 352 215
265 268 285 306 321 331 331 332 330 326 325 321 318 312 255 210 248 287 20 52 186 252 265 338 333 314 351 19 296 188 118 219 237 98 110 199 304 198 181 184 212 193 158 159 222 216 243
249 253 267 289 306 320 328 328 327 325 329 325 325 332 283 259 184 129 85 110 205 221 316 352 331 16 4 348 38 21 198 224 205 171 181 163 266 272 177 189 147 250 200 207 126 354 54
236 244 259 275 290 305 320 325 326 326 330 329 327 351 279 304 157 89 82 223 237 236 8 345 323 28 356 325 23 25 301 280 235 202 28 264 276 236 257 149 249 166 178 21 349 154 240
230 242 255 269 275 291 312 325 325 330 330 331 32 352 268 160 149 53 163 227 269 223 53 37 2 317 306 317 14 329 273 310 44 348 157 151 155 264 51 183 216 294 194 58 140 141 175
229 240 254 266 265 269 298 316 321 337 337 33 34 335 306 66 61 48 165 191 321 304 74 288 233 220 235 10 305 254 248 236 31 320 4 318 175 255 243 247 244 207 211 158 139 264 244
225 235 245 261 271 249 272 308 320 346 25 360 32 267 297 131 171 261 272 245 215 275 266 262 283 215 81 247 277 221 244 311 349 25 75 300 341 354 341 347 26 211 211 177 129 90 197
213 225 239 255 267 233 260 302 309 339 14 85 9 337 311 39 126 155 154 267 261 300 270 234 260 290 15 346 227 293 327 338 341 332 266 138 171 178 208 234 293 248 215 187 159 144 222
207 218 239 252 223 222 255 279 277 324 16 90 49 259 190 290 18 127 138 334 285 304 259 7 82 79 91 303 312 130 22 324 316 316 318 169 216 191 245 252 267 247 232 192 181 206 187
202 214 226 214 212 225 252 270 249 293 95 81 144 355 348 291 294 202 164 203 215 290 304 292 54 1 153 198 316 311 18 343 253 317 11 324 283 293 281 284 336 280 243 236 230 174 240
197 204 204 206 220 225 222 225 235 237 105 121 292 323 102 297 320 127 188 99 64 46 266 24 146 249 208 177 299 264 239 236 238 258 253 256 212 6 270 335 318 292 228 227 226 191 173
194 200 202 211 221 204 217 221 223 220 167 134 245 89 89 275 270 188 38 10 31 357 286 305 344 230 264 295 277 257 248 236 229 235 209 237 165 179 268 4 249 250 312 209 220 217 195
191 198 203 208 206 214 219 227 221 229 194 136 197 110 136 263 312 285 129 99 336 311 241 275 355 240 300 299 322 324 317 265 215 210 216 206 174 232 204 196 284 293 287 318 173 249 196
189 196 204 211 212 215 221 239 217 217 229 132 208 170 183 100 238 312 39 25 243 314 338 292 305 280 291 213 245 246 243 300 297 324 207 183 203 191 169 193 237 305 222 204 148 291 217
190 204 205 209 209 207 218 231 219 217 228 157 233 178 190 234 258 159 218 201 224 80 267 311 304 334 354 285 223 228 242 266 263 202 117 3 287 206 219 232 264 230 276 357 176 246 187
198 195 199 204 194 207 210 228 242 215 223 142 233 199 156 252 277 220 239 210 64 142 171 267 1 295 299 120 319 324 307 310 299 277 227 227 209 224 141 180 257 180 136 178 226 302 166
186 186 194 193 194 201 202 216 223 205 226 145 218 235 142 191 252 227 249 229 215 199 157 244 216 213 182 108 198 253 291 305 314 279 324 241 216 240 185 215 239 241 215 236 163 180 225